UAL149 KEWR-SBGR

Flight info

Callsign UAL149
Flight time N/A
Altitude 35000
Route ELVAE DCT NECCK DCT DIXIE Y482 SQUAD/M083F350 DCT DARUX L459 DASER DCT PIREX/M083F370 L462 DAWIN/N0485F370 L462 LAMKN/N0482F380 UL462 ANU DCT BNE DCT VOKAV/N0482F370 DCT ALBEP DCT SUMVA/N0480F380 DCT XOLOK DCT MOPRA/N0478F400 DCT PUDKA/N0477F390 DCT PANAB UZ87 OBLUG UZ42 ZARES
Aircraft B772/H-SDE2E3FGHIJ5LORVWXY/LB1D1

Departure

Time 2026-05-04 19:27
Airport Newark Liberty International Airport (KEWR)

Arrival

Time N/A
Airport São Paulo/Guarulhos–Governor André Franco Montoro International Airport (SBGR)
Time Latitude Longitude Altitude Speed Heading
2026-05-04 18:47 40.69676 -74.17678 26 ft 0 kts 165°
2026-05-04 19:15 40.69677 -74.17679 26 ft 2 kts 165°
2026-05-04 19:15 40.69698 -74.17686 26 ft 3 kts 161°
2026-05-04 19:15 40.69720 -74.17697 26 ft 3 kts 158°
2026-05-04 19:16 40.69742 -74.17708 26 ft 3 kts 162°
2026-05-04 19:16 40.69763 -74.17713 26 ft 3 kts 197°
2026-05-04 19:16 40.69779 -74.17701 25 ft 3 kts 220°
2026-05-04 19:16 40.69796 -74.17682 25 ft 3 kts 220°
2026-05-04 19:17 40.69814 -74.17662 25 ft 3 kts 215°
2026-05-04 19:17 40.69834 -74.17648 26 ft 3 kts 185°
2026-05-04 19:17 40.69850 -74.17654 26 ft 3 kts 126°
2026-05-04 19:17 40.69856 -74.17675 26 ft 3 kts 62°
2026-05-04 19:18 40.69841 -74.17698 26 ft 3 kts 40°
2026-05-04 19:18 40.69833 -74.17707 26 ft 0 kts 44°
2026-05-04 19:18 40.69837 -74.17701 26 ft 3 kts 47°
2026-05-04 19:18 40.69846 -74.17690 26 ft 0 kts 38°
2026-05-04 19:22 40.69866 -74.17669 26 ft 10 kts 38°
2026-05-04 19:22 40.69904 -74.17586 26 ft 11 kts 82°
2026-05-04 19:22 40.69944 -74.17504 26 ft 11 kts 42°
2026-05-04 19:22 40.69998 -74.17433 26 ft 11 kts 45°
2026-05-04 19:23 40.70057 -74.17371 26 ft 11 kts 15°
2026-05-04 19:23 40.70115 -74.17316 27 ft 11 kts 70°
2026-05-04 19:23 40.70116 -74.17215 27 ft 11 kts 93°
2026-05-04 19:23 40.70111 -74.17115 26 ft 11 kts 95°
2026-05-04 19:24 40.70103 -74.17014 26 ft 11 kts 96°
2026-05-04 19:24 40.70095 -74.16915 26 ft 11 kts 95°
2026-05-04 19:24 40.70088 -74.16815 27 ft 11 kts 95°
2026-05-04 19:24 40.70080 -74.16714 27 ft 12 kts 95°
2026-05-04 19:25 40.70073 -74.16599 26 ft 12 kts 95°
2026-05-04 19:25 40.70065 -74.16485 26 ft 13 kts 94°
2026-05-04 19:25 40.70053 -74.16375 24 ft 12 kts 120°
2026-05-04 19:25 40.70004 -74.16376 24 ft 2 kts 206°
2026-05-04 19:26 40.69985 -74.16389 27 ft 8 kts 206°
2026-05-04 19:26 40.69841 -74.16483 25 ft 49 kts 206°
2026-05-04 19:26 40.69336 -74.16803 28 ft 112 kts 205°
2026-05-04 19:26 40.68456 -74.17356 31 ft 166 kts 206°
2026-05-04 19:27 40.67348 -74.18029 465 ft 173 kts 202°
2026-05-04 19:27 40.66196 -74.18373 1180 ft 174 kts 184°
2026-05-04 19:27 40.64987 -74.18705 1636 ft 186 kts 208°
2026-05-04 19:27 40.63820 -74.19557 1852 ft 205 kts 210°
2026-05-04 19:28 40.62502 -74.20475 2121 ft 220 kts 211°
2026-05-04 19:28 40.61210 -74.21590 2642 ft 222 kts 217°
2026-05-04 19:28 40.60112 -74.22618 3328 ft 217 kts 217°
2026-05-04 19:28 40.59226 -74.23430 3772 ft 218 kts 216°
2026-05-04 19:29 40.57957 -74.24581 4308 ft 222 kts 217°
2026-05-04 19:29 40.56691 -74.25716 4827 ft 224 kts 217°
2026-05-04 19:29 40.55358 -74.26824 5255 ft 229 kts 206°
2026-05-04 19:29 40.53738 -74.27068 5648 ft 243 kts 176°
2026-05-04 19:30 40.52090 -74.26420 6125 ft 250 kts 165°
2026-05-04 19:30 40.50441 -74.25596 6564 ft 256 kts 165°
2026-05-04 19:30 40.48762 -74.24751 6817 ft 268 kts 164°
2026-05-04 19:30 40.46985 -74.23859 7188 ft 277 kts 164°
2026-05-04 19:31 40.45174 -74.22947 7647 ft 281 kts 164°
2026-05-04 19:31 40.43337 -74.22021 8153 ft 283 kts 164°
2026-05-04 19:31 40.41486 -74.21082 8693 ft 286 kts 163°
2026-05-04 19:31 40.39615 -74.20136 9155 ft 288 kts 165°
2026-05-04 19:32 40.37727 -74.19221 9687 ft 290 kts 165°
2026-05-04 19:32 40.35823 -74.18288 10108 ft 294 kts 164°
2026-05-04 19:32 40.33860 -74.17320 10255 ft 309 kts 164°
2026-05-04 19:32 40.31802 -74.16475 10357 ft 319 kts 173°
2026-05-04 19:33 40.29584 -74.15968 10460 ft 328 kts 178°
2026-05-04 19:33 40.27265 -74.15871 10573 ft 339 kts 186°
2026-05-04 19:33 40.24852 -74.16001 10847 ft 353 kts 187°